Regional Weather Roundup
Issued by NWS

Home | Current Version | Previous Version | Text Only | Print | Product List | Glossary Off
Versions: 1 2 3 4 5 6 7 8 9 10 11 12 13 14 15 16 17 18 19 20 21 22 23 24 25 26 27 28 29 30 31 32 33 34 35 36 37 38 39 40 41 42 43 44 45 46 47 48 49 50

000
ASUS45 KPSR 152200
RWRAZ

PRELIMINARY ARIZONA REGIONAL HOURLY WEATHER ROUNDUP
NATIONAL WEATHER SERVICE PHOENIX AZ
300 PM MST MON SEP 15 2014

NOTE: FAIR INDICATES FEW OR NO CLOUDS BELOW 12,000 FEET WITH NO
SIGNIFICANT WEATHER AND/OR OBSTRUCTIONS TO VISIBILITY.

AZZ001>003-036-152300-
NORTHWEST ARIZONA

CITY           SKY/WX    TMP DP  RH WIND       PRES   REMARKS
KINGMAN        SUNNY     96  45  17 VRB3      29.99F
$$

AZZ004>008-015-016-018-152300-
NORTH CENTRAL ARIZONA

CITY           SKY/WX    TMP DP  RH WIND       PRES   REMARKS
GRAND CANYON   MOSUNNY   81  39  22 CALM      30.26F
PRESCOTT       MOSUNNY   87  53  31 CALM      30.11F
FLAGSTAFF      CLOUDY    75  39  27 W8        30.28F
PAYSON         DRIZZLE   75  50  41 NE8G15    30.15F
PAGE           SUNNY     93  42  17 N6        30.06F
$$

AZZ009>014-017-152300-
NORTHEAST ARIZONA

CITY           SKY/WX    TMP DP  RH WIND       PRES   REMARKS
WINSLOW        NOT AVBL
SAINT JOHNS    MOSUNNY   89  43  20 VRB5      30.12F
SHOW LOW       PTSUNNY   73  48  40 S20G29    30.24S
$$

AZZ023-152300-
GREATER PHOENIX AREA

CITY           SKY/WX    TMP DP  RH WIND       PRES   REMARKS
PHOENIX        MOSUNNY  102  57  22 VRB3      29.77F HX 101
GLENDALE       MOSUNNY  102  57  22 NE7       29.79F HX 101
DEER VALLEY    SUNNY    101  56  22 VRB6      29.80F HX 100
SCOTTSDALE     SUNNY     99  57  24 VRB5      29.82F
MESA-GATEWAY   MOSUNNY  100  59  25 S6        29.82F HX 100
$$

AZZ027-028-152300-
SOUTHWEST MARICOPA COUNTY AND PINAL COUNTY

CITY           SKY/WX    TMP DP  RH WIND       PRES   REMARKS
CASA GRANDE    SUNNY    100  57  23 CALM      29.81F
GILA BEND      MOCLDY   104  54  18 N6G16     29.75F HX 102
$$

AZZ503-504-507>509-152300-
SOUTHEAST ARIZONA

CITY           SKY/WX    TMP DP  RH WIND       PRES   REMARKS
TUCSON         CLOUDY    95  54  25 SE6       29.92F
RYAN FIELD       N/A     97  55  24 SE7       29.89F
NOGALES        CLOUDY    88  58  36 S10G17    30.01S
SIERRA VISTA   PTSUNNY   81  55  41 E3        30.09F
SAFFORD        MOSUNNY   90  55  30 S8        29.95F
$$

AZZ020-021-025-026-031-152300-
SOUTHWEST ARIZONA

CITY           SKY/WX    TMP DP  RH WIND       PRES   REMARKS
YUMA           NOT AVBL
$$

CAZ031-033-041-043-047-048-061-152300-
SOUTHERN CALIFORNIA

CITY           SKY/WX    TMP DP  RH WIND       PRES   REMARKS
DOWNTOWN L.A.  SUNNY     93  57  29 VRB5      29.75F
L.A. AIRPORT   MOSUNNY   83  60  45 W21       29.76F
SAN DIEGO      MOSUNNY   87  63  44 W10       29.75F
BURBANK        SUNNY    101  52  19 S8        29.77F
ONTARIO        MOSUNNY  107  52  16 W8        29.76F HX 105
RIVERSIDE      SUNNY    106  54  17 W16       29.74F HX 104
PALM SPRINGS   MOSUNNY  110  49  13 SE8       29.73F HX 106
EL CENTRO NAS  MOSUNNY  109  57  18 NE8       29.68F HX 109
IMPERIAL       SUNNY    108  57  18 SE7       29.68F HX 108
BLYTHE         SUNNY    106  56  19 CALM      29.72F HX 105
$$

NVZ020-UTZ003-152300-
SOUTHERN NEVADA-UTAH

CITY           SKY/WX    TMP DP  RH WIND       PRES   REMARKS
LAS VEGAS      NOT AVBL
SALT LAKE CITY MOSUNNY   88  38  17 NW9       30.07F
$$

NMZ009-TXZ055-152300-
NEW MEXICO-WEST TEXAS

CITY           SKY/WX    TMP DP  RH WIND       PRES   REMARKS
ALBUQUERQUE    MOSUNNY   85  54  34 W10G20    30.16F
EL PASO        LGT RAIN  76  61  59 E9        30.12F
$$


........................KEY........................
SKY/WX - SKY CONDITION/WEATHER
TMP    - TEMPERATURE IN FAHRENHEIT
DP     - DEW POINT IN FAHRENHEIT
RH     - RELATIVE HUMIDITY IN PERCENT
WIND   - DIRECTION AND SPEED IN MILES PER HOUR (MPH)
VRB    - VARIABLE WIND DIRECTION
PRES   - MEAN SEA LEVEL PRESSURE IN INCHES OF MERCURY
         F - FALLING PRESSURE   R - RISING PRESSURE
         S - STEADY PRESSURE
VSB    - VISIBILITY IN MILES
HX     - HEAT INDEX IN FAHRENHEIT
WCI    - WIND CHILL INDEX IN FAHRENHEIT
TC     - TEMPERATURE IN CELSIUS WHICH IS ALSO KNOWN AS
         TEMPERATURE IN CENTIGRADE
AFB    - AIR FORCE BASE
         LUKE AFB IS LUKE AIR FORCE BASE
         DAVIS-MONTHAN IS DAVIS-MONTHAN AIR FORCE BASE
NAS    - NAVAL AIR STATION
         EL CENTRO NAS IS EL CENTRO NAVAL AIR STATION
N/A    - NOT AVAILABLE


USA.gov is the U.S. government's official web portal to all federal, state and local government web resources and services.